TimeCDT,TemperatureF,Dew PointF,Humidity,Sea Level PressureIn,VisibilityMPH,Wind Direction,Wind SpeedMPH,Gust SpeedMPH,PrecipitationIn,Events,Conditions,WindDirDegrees,DateUTC
12:15 AM,46.4,44.6,93,29.99,10.0,Calm,Calm,-,N/A,,Overcast,0,2013-05-05 05:15:00
12:35 AM,46.4,44.6,93,29.98,10.0,Calm,Calm,-,N/A,,Overcast,0,2013-05-05 05:35:00
12:55 AM,46.4,44.6,93,29.98,10.0,Calm,Calm,-,N/A,,Overcast,0,2013-05-05 05:55:00
1:15 AM,46.4,44.6,93,29.98,7.0,Calm,Calm,-,N/A,,Overcast,0,2013-05-05 06:15:00
1:35 AM,46.4,44.6,93,29.96,2.0,Calm,Calm,-,0.01,Rain,Rain,0,2013-05-05 06:35:00
1:55 AM,46.4,44.6,93,29.95,5.0,Calm,Calm,-,0.01,Rain,Light Rain,0,2013-05-05 06:55:00
2:15 AM,46.4,44.6,93,29.95,10.0,Calm,Calm,-,N/A,,Overcast,0,2013-05-05 07:15:00
2:35 AM,46.4,44.6,93,29.95,7.0,Calm,Calm,-,N/A,,Overcast,0,2013-05-05 07:35:00
2:55 AM,46.4,44.6,93,29.94,3.0,Calm,Calm,-,0.01,,Heavy Drizzle,0,2013-05-05 07:55:00
3:15 AM,46.4,44.6,93,29.93,5.0,Calm,Calm,-,N/A,,Light Drizzle,0,2013-05-05 08:15:00
3:35 AM,48.2,46.4,93,29.93,7.0,Calm,Calm,-,0.01,Rain,Light Rain,0,2013-05-05 08:35:00
3:55 AM,48.2,46.4,93,29.92,7.0,NW,3.5,-,0.02,Rain,Rain,320,2013-05-05 08:55:00
4:15 AM,48.2,46.4,93,29.92,5.0,Calm,Calm,-,N/A,Rain,Light Rain,0,2013-05-05 09:15:00
4:35 AM,48.2,46.4,93,29.91,5.0,NNW,3.5,-,0.01,Rain,Rain,330,2013-05-05 09:35:00
4:55 AM,48.2,46.4,93,29.91,4.0,North,5.8,-,0.02,Rain,Rain,350,2013-05-05 09:55:00
5:15 AM,50.0,48.2,94,29.90,5.0,North,6.9,-,0.02,Rain,Rain,360,2013-05-05 10:15:00
5:35 AM,51.8,48.2,88,29.90,5.0,NNE,5.8,-,N/A,,Drizzle,20,2013-05-05 10:35:00
6:15 AM,51.8,50.0,94,29.91,7.0,NNE,6.9,-,0.01,Rain,Light Rain,30,2013-05-05 11:15:00
6:35 AM,51.8,50.0,94,29.91,5.0,NNE,5.8,-,0.02,Rain,Rain,20,2013-05-05 11:35:00
6:55 AM,53.6,51.8,94,29.91,7.0,NNE,9.2,-,0.05,Rain,Rain,20,2013-05-05 11:55:00
7:15 AM,53.6,51.8,94,29.90,10.0,NNE,10.4,-,0.02,Rain,Light Rain,20,2013-05-05 12:15:00
7:35 AM,53.6,51.8,94,29.90,10.0,NNE,8.1,-,0.03,Rain,Rain,20,2013-05-05 12:35:00
7:55 AM,53.6,51.8,94,29.90,10.0,NNE,9.2,-,0.05,Rain,Rain,30,2013-05-05 12:55:00
8:15 AM,53.6,51.8,94,29.90,10.0,NNE,10.4,-,0.02,Rain,Light Rain,30,2013-05-05 13:15:00
8:35 AM,53.6,51.8,94,29.90,10.0,North,11.5,19.6,0.03,Rain,Light Rain,10,2013-05-05 13:35:00
8:55 AM,53.6,51.8,94,29.90,10.0,NNE,10.4,19.6,0.04,Rain,Light Rain,20,2013-05-05 13:55:00
9:15 AM,55.4,51.8,88,29.90,10.0,NNE,10.4,-,0.01,Rain,Light Rain,20,2013-05-05 14:15:00
9:35 AM,53.6,51.8,94,29.90,7.0,NNE,11.5,-,0.03,Rain,Heavy Rain,30,2013-05-05 14:35:00
9:55 AM,53.6,51.8,94,29.89,10.0,NNE,9.2,-,0.08,Rain,Rain,20,2013-05-05 14:55:00
10:15 AM,55.4,53.6,94,29.89,10.0,NNE,10.4,16.1,N/A,,Overcast,20,2013-05-05 15:15:00
10:35 AM,55.4,53.6,94,29.89,10.0,North,11.5,17.3,N/A,,Overcast,10,2013-05-05 15:35:00
10:55 AM,55.4,53.6,94,29.89,10.0,NNE,12.7,18.4,N/A,,Overcast,20,2013-05-05 15:55:00
11:15 AM,55.4,53.6,94,29.90,10.0,NNE,10.4,-,N/A,,Overcast,30,2013-05-05 16:15:00
11:35 AM,55.4,53.6,94,29.89,10.0,NNE,11.5,-,N/A,,Overcast,30,2013-05-05 16:35:00
11:55 AM,57.2,53.6,88,29.89,10.0,NE,9.2,-,N/A,,Overcast,40,2013-05-05 16:55:00
12:15 PM,55.4,53.6,94,29.89,4.0,East,5.8,-,0.08,Rain,Heavy Rain,80,2013-05-05 17:15:00
12:35 PM,55.4,53.6,94,29.88,5.0,ENE,8.1,-,0.09,Rain,Light Rain,60,2013-05-05 17:35:00
12:55 PM,55.4,53.6,94,29.88,7.0,ENE,10.4,-,N/A,,Mostly Cloudy,60,2013-05-05 17:55:00
1:15 PM,55.4,53.6,94,29.88,10.0,ENE,8.1,-,N/A,,Mostly Cloudy,60,2013-05-05 18:15:00
1:35 PM,57.2,53.6,88,29.88,10.0,ENE,5.8,-,N/A,,Overcast,70,2013-05-05 18:35:00
1:55 PM,57.2,53.6,88,29.88,10.0,ENE,8.1,-,N/A,,Mostly Cloudy,70,2013-05-05 18:55:00
2:15 PM,57.2,53.6,88,29.88,10.0,NE,8.1,-,N/A,,Overcast,50,2013-05-05 19:15:00
2:35 PM,57.2,53.6,88,29.88,10.0,ENE,4.6,-,N/A,,Overcast,60,2013-05-05 19:35:00
2:55 PM,57.2,53.6,88,29.87,10.0,ENE,8.1,-,N/A,,Overcast,70,2013-05-05 19:55:00
3:15 PM,57.2,53.6,88,29.87,10.0,East,6.9,-,N/A,,Overcast,90,2013-05-05 20:15:00
3:35 PM,57.2,53.6,88,29.87,10.0,East,4.6,-,N/A,,Overcast,80,2013-05-05 20:35:00
3:55 PM,57.2,53.6,88,29.87,10.0,East,5.8,-,N/A,,Overcast,90,2013-05-05 20:55:00
4:15 PM,57.2,53.6,88,29.87,3.0,East,10.4,-,N/A,Rain,Rain,80,2013-05-05 21:15:00
4:35 PM,55.4,53.6,94,29.87,10.0,East,5.8,-,N/A,,Overcast,80,2013-05-05 21:35:00
4:55 PM,57.2,53.6,88,29.87,10.0,NE,8.1,-,N/A,,Overcast,50,2013-05-05 21:55:00
5:15 PM,57.2,53.6,88,29.87,10.0,NE,8.1,-,N/A,,Overcast,50,2013-05-05 22:15:00
5:35 PM,57.2,53.6,88,29.87,10.0,NE,11.5,-,N/A,,Overcast,40,2013-05-05 22:35:00
5:55 PM,57.2,53.6,88,29.87,10.0,NE,9.2,-,N/A,,Overcast,50,2013-05-05 22:55:00
6:15 PM,57.2,53.6,88,29.87,10.0,ENE,11.5,-,N/A,,Overcast,60,2013-05-05 23:15:00
6:35 PM,57.2,53.6,88,29.88,10.0,NE,10.4,-,N/A,,Overcast,50,2013-05-05 23:35:00
6:55 PM,55.4,53.6,94,29.88,10.0,ENE,9.2,-,N/A,,Overcast,60,2013-05-05 23:55:00
7:15 PM,55.4,51.8,88,29.89,10.0,NE,8.1,-,N/A,,Mostly Cloudy,50,2013-05-06 00:15:00
7:35 PM,55.4,51.8,88,29.89,10.0,NE,9.2,-,N/A,,Mostly Cloudy,40,2013-05-06 00:35:00
7:55 PM,55.4,51.8,88,29.89,10.0,NE,10.4,-,N/A,,Scattered Clouds,50,2013-05-06 00:55:00
8:15 PM,55.4,51.8,88,29.90,10.0,NE,9.2,-,N/A,,Scattered Clouds,50,2013-05-06 01:15:00
8:35 PM,55.4,51.8,88,29.90,10.0,NE,6.9,-,N/A,,Mostly Cloudy,50,2013-05-06 01:35:00
8:55 PM,55.4,51.8,88,29.90,10.0,NE,8.1,-,N/A,,Overcast,50,2013-05-06 01:55:00
9:35 PM,53.6,51.8,94,29.91,10.0,NE,6.9,-,N/A,,Overcast,40,2013-05-06 02:35:00
9:55 PM,53.6,51.8,94,29.91,10.0,NNE,8.1,-,N/A,,Overcast,30,2013-05-06 02:55:00
10:15 PM,53.6,51.8,94,29.91,10.0,NE,5.8,-,N/A,,Overcast,40,2013-05-06 03:15:00
10:35 PM,53.6,51.8,94,29.91,10.0,NE,8.1,-,N/A,,Overcast,50,2013-05-06 03:35:00
10:55 PM,53.6,51.8,94,29.91,10.0,NE,6.9,-,N/A,,Overcast,50,2013-05-06 03:55:00
11:15 PM,53.6,51.8,94,29.90,10.0,NE,8.1,-,N/A,,Overcast,40,2013-05-06 04:15:00
11:35 PM,53.6,51.8,94,29.90,10.0,NE,8.1,-,N/A,,Overcast,40,2013-05-06 04:35:00
11:55 PM,53.6,51.8,94,29.90,10.0,NNE,8.1,-,N/A,,Overcast,30,2013-05-06 04:55:00